Regional Weather Roundup
Issued by NWS

Home | Current Version | Previous Version | Text Only | Print | Product List | Glossary Off
Versions: 1 2 3 4 5 6 7 8 9 10 11 12 13 14 15 16 17 18 19 20 21 22 23 24 25 26 27 28 29 30 31 32 33 34 35 36 37 38 39 40 41 42 43 44 45 46 47 48 49 50

000
ASUS43 KIND 020709
RWRIN

WEATHER ROUNDUP FOR INDIANA
NATIONAL WEATHER SERVICE INDIANAPOLIS IN
300 AM EDT TUE SEP 02 2014

NOTE: "FAIR" INDICATES FEW OR NO CLOUDS BELOW 12,000 FEET WITH NO
SIGNIFICANT WEATHER AND/OR OBSTRUCTIONS TO VISIBILITY.

* - STATION DOES NOT REPORT WEATHER SUCH AS PRECIPITATION OR FOG.

+ - STATION NOT QUALITY CONTROLLED BY THE NATIONAL WEATHER SERVICE.
    USE DATA WITH CAUTION...ESPECIALLY DEWPOINT AND RELATIVE
    HUMIDITY OBSERVATIONS.

INZ001>003-010>013-019-020-020800-
NORTHWEST INDIANA

CITY           SKY/WX    TMP DP  RH WIND       PRES   REMARKS
GARY /AIRPORT/ CLOUDY    74  67  79 SW5       29.87S
KNOX *+        CLOUDY    68  64  88 CALM      29.88S
LA PORTE +     CLOUDY    69  65  88 W5        29.89R
MICHIGAN CITY+ CLOUDY    70  63  78 SW6       29.88R
MONTICELLO +   CLOUDY    70  67  91 SW8       29.90F
RENSSELAER +   CLOUDY    68  68 100 S6        29.89F
VALPARAISO     CLOUDY    70  65  84 W6        29.88F

$$

LMZ046-743>745-020800-
SOUTHERN LAKE MICHIGAN

STATION/POSITION TIME  TEMP WIND        PRES
                       AIR  DIR/SP/G
                 (UTC) (F)  (DEG/KT/KT) (MB)
MICHIGAN CITY    0700   73  200/ 11/ 14   N/A

$$

INZ004-005-014>016-021>024-020800-
NORTH CENTRAL INDIANA

CITY           SKY/WX    TMP DP  RH WIND       PRES   REMARKS
GOSHEN         CLOUDY    70  65  84 SW7       29.90R
LOGANSPORT +   CLOUDY    68  64  88 S7        29.92F
PERU/GRISSOM   LGT RAIN  70  70 100 SW13      29.92S
ROCHESTER +    CLOUDY    72  68  88 SW7       29.91R
SOUTH BEND     CLOUDY    71  65  81 SW8       29.90R
WARSAW +       CLOUDY    70  64  83 SW6       29.90R

$$

INZ006>009-017-018-025>027-020800-
NORTHEAST INDIANA

CITY           SKY/WX    TMP DP  RH WIND       PRES   REMARKS
ANGOLA *+      CLEAR     70  61  73 SW7       29.91R
AUBURN +       MOCLDY    68  63  83 SW3       29.91R
FORT WAYNE     MOCLDY    68  65  90 SW7       29.92R
HUNTINGTON +   PTCLDY    69  66  90 SW6       29.93R

$$

INZ028-029-035-036-043>045-051>053-020800-
WEST CENTRAL INDIANA

CITY           SKY/WX    TMP DP  RH WIND       PRES   REMARKS
GREENCASTLE +  RAIN      70  68  94 SW3       29.99R
LAFAYETTE      RAIN      69  68  96 S12       29.91F
TERRE HAUTE    TSTM      69  66  90 S5        29.97R

$$

INZ030>032-037>040-046>048-054>057-064-065-020800-
CENTRAL INDIANA

CITY           SKY/WX    TMP DP  RH WIND       PRES   REMARKS
CP ATTERBURY + CLOUDY    73  70  88 CALM      29.96R
FRANKFORT +    RAIN     N/A N/A N/A SW6       29.96R
GREENWOOD *+   CLOUDY    73  73 100 W5        29.96
INDIANAPOLIS   TSTM      72  68  87 W16       29.95S
-EAGLE CREEK   TSTM      71  66  84 SW9       29.95F
KOKOMO *+      CLOUDY    72  66  83 SW12      29.94R
MARION +       MOCLDY    69  65  86 SW6       29.94F
MT COMFORT *+  CLOUDY    72 N/A N/A W12       29.96F
SHELBYVILLE    CLOUDY    74  71  91 CALM      29.94F
ZIONSVILLE +   TSTM      72  67  84 W12       29.96S

$$

INZ033-034-041-042-049-050-058-059-020800-
EAST CENTRAL INDIANA

CITY           SKY/WX    TMP DP  RH WIND       PRES   REMARKS
MUNCIE         MOCLDY    72  68  87 SW7       29.94F

$$

INZ060-061-067>069-081>083-085>088-020800-
SOUTHWEST INDIANA

CITY           SKY/WX    TMP DP  RH WIND       PRES   REMARKS
EVANSVILLE     CLOUDY    79  71  76 S10       29.95F
WASHINGTON +   CLOUDY    78  73  84 SW8       29.93R

$$

INZ062-063-066-070>080-084-089>092-020800-
SOUTH CENTRAL AND SOUTHEAST INDIANA

CITY           SKY/WX    TMP DP  RH WIND       PRES   REMARKS
BEDFORD +      CLOUDY    75  70  83 S7        29.94
BLOOMINGTON    TSTM      73  71  93 N10G18    29.94F VSB 1
NORTH VERNON + CLOUDY    73  73 100 CALM      29.96

$$




USA.gov is the U.S. government's official web portal to all federal, state and local government web resources and services.